ヤング彗星

C/2019 K5 ( Young )

English version
Home page
Updated on August 15, 2020

---------------------------------------------------------------------

・ プロフィール

発見日 2019年5月25日
発見光度 17.1等
発見者 David Young (Asteroid Terrestrial-Impact Last Alert System (ATLAS) search program)

・ 写真集

・ 軌道要素

Epoch 2019 June 6.0 TT = JDT 2458640.5
T 2019 June 22.74585 TT                                 Rudenko
q   2.0350395            (2000.0)            P               Q
z  +0.0066451      Peri.  174.91393     +0.99067021     +0.13566392
 +/-0.0000018      Node   177.18871     -0.13249034     +0.98101753
e   0.9864769      Incl.   15.31566     -0.03191926     +0.13856375
From 558 observations 2018 June 17-2020 Feb. 27, mean residual 0".5.

・ 星図

・ 光度変化

        m1 = 10.0 + 5 logΔ + 13.5 log r(t - 50)

---------------------------------------------------------------------

軌道要素はM.P.E.C. 2020-F67に掲載されたものです。
星図はステラナビゲータ Ver.10 (アストロアーツ) で作成したものです。
光度グラフはComet for Windowsで作成したものです。

---------------------------------------------------------------------

Copyright(C) Seiichi Yoshida (comet@aerith.net). All rights reserved.